Location: Castiglione Fibocchi
(43.5333°N, 11.7667°E)
Time: 18:07:24
(UTC+00:00)

SL-16 R/B - Pass Details

Date: 15 August 2020
Orbit: 840 x 849 km, 71.0° (Epoch: 18 September)

Event Time Altitude Azimuth Distance (km) Brightness Sun altitude
Rises 00:07:25 0° 333° (NNW) 3,422 6.0 -31.4°
Reaches altitude 10° 00:09:53 10° 333° (NNW) 2,482 5.2 -31.3°
Enters shadow 00:14:06 51° 323° (NW) 1,061 2.8 -31.1°
